Location: Napa Soda Springs
(38.3907°N, 122.2794°W)
Time: 07:46:47
(UTC+00:00)

ERS-2 - Pass Details

Date: 29 October 2020
Orbit: 493 x 497 km, 98.6° (Epoch: 02 December)

Event Time Altitude Azimuth Distance (km) Brightness Sun altitude
Rises 13:37:35 0° 200° (SSW) 2,564 5.6 -11.4°
Reaches altitude 10° 13:40:09 10° 219° (SW) 1,687 4.5 -10.9°
Maximum altitude 13:42:41 18° 264° (W) 1,270 3.6 -10.4°
Enters shadow 13:44:49 12° 304° (WNW) 1,576 4.1 -10.0°
